User: anonymous   Login
Location: Iesi
(43.5167°N, 13.2333°E)
Time: 10:58:56
(UTC+00:00)
Language:

Cosmos 1605 Rocket - Orbit

View from above orbital plane
View from above orbital plane
View from above satellite
View from above satellite

Ground track
Ground track

The orbit data is extracted from the following two-line orbital elements,

1 15360U 84109B   20296.91458471 +.00000009 +00000-0 -63252-5 0  9998
2 15360 082.9425 219.4369 0040100 229.9751 129.7885 13.76767199809701
Epoch (UTC): 22 October 2020 21:57:00
Eccentricity: 0.0040100
inclination: 82.9425°
perigee height: 946 km
apogee height: 1005 km
right ascension of ascending node: 219.4369°
argument of perigee: 229.9751°
revolutions per day: 13.76767199
mean anomaly at epoch: 129.7885°
orbit number at epoch: 80970

The dashed part of the orbit path shows where the satellite is in the earth's shadow,  

DLR